Location: Slidell
(30.2789°N, 89.7378°W)
Time: 09:28:56
(UTC-05:00)

Cosmos 2360 Rocket - Visible Passes

Search period start: 02 October 2014 00:00
Search period end: 12 October 2014 00:00
Orbit: 833 x 847 km, 71.0° (Epoch: 01 October)

Date Brightness Start Highest point End Pass type
(mag) Time Alt. Az. Time Alt. Az. Time Alt. Az.
08 Oct 3.7 19:51:20 10° SSE 19:53:09 17° SE 19:53:09 17° SE visible
08 Oct 4.6 21:34:20 10° SW 21:35:05 14° SW 21:35:05 14° SW visible
09 Oct 3.2 19:35:56 10° SSE 19:40:10 22° E 19:40:21 22° E visible
09 Oct 3.7 21:18:38 10° SW 21:22:19 32° W 21:22:19 32° W visible
10 Oct 3.9 06:18:14 10° N 06:23:25 36° ENE 06:28:34 10° SE visible
10 Oct 3.3 19:20:34 10° SSE 19:24:36 20° E 19:27:51 13° ENE visible
10 Oct 3.3 21:02:58 10° SW 21:08:13 40° WNW 21:09:49 33° NNW visible
11 Oct 4.0 06:02:43 10° N 06:07:49 34° ENE 06:12:53 10° SE visible
11 Oct 3.5 19:05:13 10° SE 19:09:03 19° E 19:12:53 10° ENE visible
11 Oct 3.2 20:47:17 10° SW 20:52:37 43° WNW 20:57:40 12° N visible
